This is the latest recevied weather packets stored in our database for station/object KD5NDU-15. If no packets are shown the sender has not sent any weather packets the latest 10 day(s).
| Time | Temp. | Humidity | Pressure | Rain* | Wind** | Luminosity | Snow |
|---|---|---|---|---|---|---|---|
| 1778086008 | 16.67° C | 95% | 1010.5 hPa | 0 mm | - | 135 W/m² | - |
| 1778085735 | 17.22° C | 95% | 1010.4 hPa | 0 mm | - | 123 W/m² | - |
| 1778085410 | 17.78° C | 96% | 1010.3 hPa | 0 mm | - | 144 W/m² | - |
| 1778085108 | 17.78° C | 96% | 1010.3 hPa | 0 mm | - | 130 W/m² | - |
| 1778084808 | 17.78° C | 97% | 1010.4 hPa | 0 mm | - | 113 W/m² | - |
| 1778084508 | 18.33° C | 97% | 1010.1 hPa | 0 mm | - | 135 W/m² | - |
| 1778084208 | 18.33° C | 97% | 1010 hPa | 0 mm | - | 130 W/m² | - |
| 1778083918 | 18.33° C | 97% | 1009.9 hPa | 0 mm | - | 134 W/m² | - |
| 1778083608 | 18.33° C | 97% | 1009.9 hPa | 0 mm | - | 116 W/m² | - |
| 1778083308 | 18.33° C | 97% | 1009.9 hPa | 0 mm | - | 81 W/m² | - |
| 1778083012 | 18.33° C | 97% | 1009.7 hPa | 0 mm | - | 98 W/m² | - |
| 1778082710 | 18.33° C | 97% | 1009.8 hPa | 0 mm | - | 105 W/m² | - |
| 1778082408 | 18.89° C | 97% | 1009.6 hPa | 0 mm | - | 109 W/m² | - |
| 1778082108 | 18.89° C | 97% | 1009.6 hPa | 0 mm | - | 79 W/m² | - |
| 1778081810 | 18.89° C | 97% | 1009.6 hPa | 0 mm | - | 70 W/m² | - |
| 1778081508 | 19.44° C | 98% | 1009.6 hPa | 0 mm | - | 98 W/m² | - |
| 1778081208 | 19.44° C | 98% | 1009.6 hPa | 0 mm | - | 102 W/m² | - |
| 1778080908 | 19.44° C | 98% | 1009.5 hPa | 0 mm | - | 72 W/m² | - |
| 1778080608 | 19.44° C | 98% | 1009.6 hPa | 0 mm | - | 76 W/m² | - |
| 1778080308 | 19.44° C | 98% | 1009.2 hPa | 0 mm | - | 93 W/m² | - |
| 1778080008 | - | - | 0 hPa | 0 mm | - | - | - |
| 1778079708 | - | - | 0 hPa | 0 mm | - | - | - |
| 1778071197 | - | - | 0 hPa | 0 mm | - | - | - |
| 1778070772 | - | - | 0 hPa | 0 mm | - | - | - |
| 1778037565 | 21.11° C | 89% | 1006.9 hPa | 0 mm | - | 0 W/m² | - |
* Rain latest hour (hover to see other rain measurements)
** Current wind speed in m/s (hover to see current wind gust speed)